[[{"header":{"parameterUnit":"m.s-1","parameterCategory":1,"la1":30.2991,"la2":30.254,"lo1":-89.0895,"lo2":-89.0444,"dy":0.0017,"dx":0.0017,"nx":28,"ny":28,"refTime":"2023-08-06T03:00:00:Z","depth":0,"parameterNumber":2,"parameterNumberName":"U-component_of_WINDS"},"data":[0,0,0,0,0,0,0,0,0,0,0,0,0,0,0,0,0,0,0,0,0,0,0,0,0,0,0,0,0,0,0,0,0,0,0,0,0,0,0,0,0,0,0,0,0,0,0,0,0,0,0,0,0,0,0,0,0,0,4.8276,4.8277,0,4.8378,4.8379,4.838,4.8334,4.8332,4.8329,4.8327,4.8431,4.8436,4.8441,0,0,0,0,0,0,0,0,0,0,0,0,0,4.8042,4.8047,4.8276,4.8277,4.8279,4.8378,4.8379,4.838,4.8334,4.8331,4.8328,4.8325,4.8429,4.8435,4.8441,0,0,0,0,0,0,0,0,0,0,0,0,0,4.8144,4.8048,4.8276,4.8268,4.8268,4.8377,4.8379,4.8381,4.8335,4.8331,4.8328,4.8324,4.8427,4.8435,4.8442,4.8566,0,0,4.8466,4.8469,0,0,0,0,0,0,0,0,4.8138,4.8152,4.8268,4.8269,4.8269,4.8339,4.8335,4.8443,4.8336,4.831,4.8327,4.8322,4.8403,4.8413,4.844,4.8571,4.8575,4.8466,4.8471,4.8474,4.8477,0,0,0,0,0,0,0,4.8131,4.8148,4.8316,4.8269,4.827,4.8259,4.8269,4.8355,4.8377,4.8312,4.8309,4.8321,4.8403,4.8433,4.8442,4.8577,4.8466,4.8473,4.8478,4.8481,4.8812,4.8816,0,0,0,0,0,0,4.8124,4.8142,4.8313,4.8319,4.8193,4.8266,4.8278,4.8321,4.8376,4.838,4.8324,4.8319,4.8422,4.8433,4.8446,4.8593,4.8474,4.8482,4.8486,4.8808,4.8813,4.8817,0,0,0,0,0,0,4.8119,4.814,4.8309,4.823,4.8251,4.8274,4.8323,4.8325,4.8354,4.8385,4.8389,4.8351,4.8419,4.8435,4.8536,4.8596,4.8485,4.8492,4.8803,4.8809,4.8815,4.8888,0,0,0,0,0,0,4.8113,4.8138,4.8186,4.8231,4.8255,4.8398,4.8327,4.8329,4.8368,4.8361,4.8411,4.8416,4.8417,4.8525,4.8544,4.8604,4.8498,4.8797,4.8806,4.8813,4.888,4.8896,4.891,0,0,0,0,0,4.8105,4.8203,4.8188,4.8209,4.8315,4.8401,4.8415,4.8415,4.8373,4.842,4.844,4.8414,4.8586,4.8535,4.8556,4.862,4.8794,4.8803,4.8812,4.8874,4.8893,4.8909,0,0,0,0,0,0,4.8163,4.8208,4.8193,4.8309,4.8352,4.8393,4.8453,4.8435,4.8491,4.8482,4.848,4.8492,4.8596,4.8618,4.8561,4.8742,4.8684,4.8698,4.8723,4.8742,4.8756,4.8748,4.8504,0,0,0,0,0,4.819,4.8256,4.8292,4.8391,4.8413,4.843,4.8467,4.8464,4.8508,4.8526,4.8553,4.8597,4.866,4.8702,4.8763,4.8884,4.8893,4.8938,4.8953,4.8965,4.8976,4.904,4.906,4.8848,4.8848,4.8848,0,0,4.8245,4.8278,4.832,4.8404,4.8436,4.8505,4.8445,4.8521,4.8571,4.8537,4.8633,4.8655,4.8704,4.8815,4.8865,4.8837,4.9037,4.8977,4.8986,4.8991,4.9052,4.9072,4.909,4.8854,4.8853,4.8852,0,0,4.838,4.8413,4.8498,4.8531,4.8581,4.8592,4.8612,4.8657,4.867,4.8766,4.8742,4.8802,4.8913,4.8948,4.8981,4.9129,4.9107,4.9149,4.9224,4.9287,4.9304,4.9318,4.937,4.9388,4.9161,4.9161,4.9161,0,4.8443,4.8545,4.8544,4.8621,4.8657,4.863,4.8715,4.8749,4.8816,4.8842,4.8809,4.8947,4.8978,4.9096,4.9132,4.916,4.9182,4.9143,4.9301,4.9316,4.933,4.9379,4.9398,4.9166,4.9165,4.9165,4.9164,0,4.8618,4.869,4.8752,4.8818,4.8862,4.8943,4.8953,4.8998,4.8991,4.9005,4.9103,4.9139,4.9206,4.9234,4.9228,4.9352,4.9332,4.9301,4.9242,4.9355,4.9401,4.942,4.9172,4.9171,4.9169,4.9168,0,0,4.8793,4.8856,4.8879,4.8908,4.8961,4.9016,4.9095,4.9161,4.9198,4.9246,4.9312,4.9406,4.9377,4.9414,4.9412,4.9467,4.958,4.9428,4.9429,4.9454,4.9717,4.9738,4.976,4.9566,4.957,4.9573,4.9712,0,4.8931,4.907,4.9071,4.9199,4.9264,4.9239,4.9308,4.9348,4.9363,4.942,4.9437,4.9502,4.946,4.9482,4.9536,4.9555,4.9633,4.9545,4.9627,4.963,4.9613,4.9785,4.9808,4.9938,4.973,4.9733,4.9735,0,4.911,4.9163,4.9297,4.934,4.9367,4.9429,4.9488,4.9544,4.9588,4.9595,4.9636,4.9626,4.9706,4.9646,4.9756,4.9697,4.973,4.9745,4.975,4.9756,4.9688,4.9794,4.9979,4.9998,4.9764,4.9762,4.976,0,4.9222,4.9327,4.942,4.9446,4.9498,4.9542,4.9566,4.9607,4.9646,4.9698,4.9722,4.9784,4.9817,4.9864,4.9869,4.9825,4.998,4.9921,4.9987,4.9987,5.002,5.0017,5.0211,5.0044,5.0044,5.0044,5.0043,0,4.9375,4.9458,4.9471,4.9528,4.962,4.962,4.9711,4.9731,4.9768,4.9828,4.9811,4.9868,4.9872,4.9931,4.9936,5.0026,5.0042,5.0049,5.0049,5.0049,5.0048,5.007,5.006,5.0049,5.0048,5.0047,5.0046,0,4.9515,4.9527,4.9627,4.9668,4.9681,4.9746,4.9781,4.9836,4.9849,4.9926,4.9944,4.9965,5.0033,5.0043,5.0124,5.0127,5.0234,5.0226,5.0219,5.0217,5.0282,5.0275,5.0495,5.0524,5.034,5.0342,5.0343,0,4.9611,4.9674,4.9722,4.976,4.9786,4.985,4.9889,4.9892,4.9933,4.9988,5.0036,5.0102,5.0155,5.0265,5.0287,5.0348,5.034,5.0414,5.0349,5.0347,5.0339,5.0335,5.034,5.0425,5.0427,5.0429,5.043,0,4.9779,4.9782,4.9839,4.9898,4.9946,4.9993,5.0037,5.007,5.0078,5.0126,5.0195,5.0236,5.0317,5.0383,5.0443,5.0468,5.045,5.045,5.0469,5.0469,5.0461,5.0464,5.025,5.0445,5.0443,5.0442,5.0442,5.0441,4.9899,4.9953,4.9995,5.0059,5.0092,5.0134,5.0186,5.0206,5.0264,5.033,5.0328,5.0404,5.0446,5.0525,5.0553,5.0612,5.0589,5.0616,5.0622,5.0628,5.0633,5.0454,5.0624,5.0623,5.0623,5.0623,5.0622,0,5.0065,5.009,5.0149,5.0211,5.0261,5.0241,5.0289,5.0332,5.0398,5.0439,5.0491,5.057,5.0633,5.0661,5.0723,5.0765,5.0758,5.0781,5.0777,5.0782,5.0652,5.0629,5.0785,5.0785,5.0785,5.0785,5.0785,5.0784,5.0157,5.0247,5.0255,5.0361,5.0386,5.0459,5.0488,5.0526,5.0558,5.0647,5.0699,5.0716,5.0751,5.0816,5.0873,5.0879,5.0902,5.0928,5.093,5.0808,5.0791,5.0776,5.0754,5.0933,5.0933,5.1055,5.1056,5.1057]},{"header":{"parameterUnit":"m.s-1","parameterCategory":1,"la1":30.2991,"la2":30.254,"lo1":-89.0895,"lo2":-89.0444,"dy":0.0017,"dx":0.0017,"nx":28,"ny":28,"refTime":"2023-08-06T03:00:00:Z","depth":0,"parameterNumber":3,"parameterNumberName":"V-component_of_WINDS"},"data":[0,0,0,0,0,0,0,0,0,0,0,0,0,0,0,0,0,0,0,0,0,0,0,0,0,0,0,0,0,0,0,0,0,0,0,0,0,0,0,0,0,0,0,0,0,0,0,0,0,0,0,0,0,0,0,0,0,0,1.2704,1.2704,0,1.2721,1.2721,1.2721,1.27,1.2699,1.2698,1.2698,1.2714,1.2715,1.2716,0,0,0,0,0,0,0,0,0,0,0,0,0,1.2654,1.2655,1.2704,1.2704,1.2704,1.272,1.2721,1.2721,1.27,1.2699,1.2698,1.2697,1.2714,1.2715,1.2717,0,0,0,0,0,0,0,0,0,0,0,0,0,1.2673,1.2655,1.2704,1.2696,1.2695,1.272,1.2721,1.2721,1.27,1.2699,1.2698,1.2697,1.2713,1.2715,1.2717,1.275,0,0,1.2722,1.2723,0,0,0,0,0,0,0,0,1.2672,1.2675,1.2697,1.2697,1.2696,1.2707,1.2709,1.2731,1.27,1.2698,1.2698,1.2696,1.2713,1.2714,1.272,1.2751,1.2752,1.2722,1.2723,1.2724,1.2724,0,0,0,0,0,0,0,1.2671,1.2674,1.2711,1.2697,1.2697,1.2691,1.2693,1.2713,1.2712,1.2698,1.2697,1.2699,1.2712,1.2718,1.272,1.2752,1.2722,1.2724,1.2725,1.2725,1.2812,1.2813,0,0,0,0,0,0,1.2671,1.2673,1.271,1.2711,1.2681,1.2693,1.2695,1.2705,1.2711,1.2711,1.27,1.2698,1.2716,1.2718,1.2721,1.2761,1.2724,1.2726,1.2727,1.281,1.2812,1.2813,0,0,0,0,0,0,1.267,1.2674,1.2709,1.2692,1.2696,1.2695,1.2706,1.2706,1.2712,1.2713,1.2712,1.2707,1.2715,1.2718,1.2743,1.2761,1.2726,1.2728,1.2809,1.2811,1.2813,1.2841,0,0,0,0,0,0,1.2668,1.2674,1.2687,1.2692,1.2697,1.2732,1.2707,1.2707,1.2715,1.2712,1.2719,1.2719,1.2714,1.2741,1.2745,1.2763,1.2729,1.2807,1.281,1.2812,1.2838,1.2843,1.2848,0,0,0,0,0,1.2667,1.2694,1.2688,1.2692,1.2713,1.2733,1.2735,1.273,1.2716,1.2729,1.273,1.2719,1.2758,1.2743,1.2748,1.2767,1.2806,1.2809,1.2812,1.2836,1.2842,1.2848,0,0,0,0,0,0,1.2691,1.2695,1.2688,1.2718,1.2725,1.2729,1.2745,1.2737,1.2748,1.2745,1.2738,1.274,1.2766,1.2769,1.2752,1.2799,1.278,1.2784,1.2797,1.2803,1.2807,1.2806,1.2731,0,0,0,0,0,1.2699,1.2715,1.2718,1.2744,1.2748,1.2746,1.2755,1.275,1.2757,1.276,1.2763,1.277,1.2784,1.2793,1.2806,1.2838,1.2839,1.2853,1.2858,1.2862,1.2865,1.2882,1.2889,1.2822,1.2822,1.2822,0,0,1.2718,1.2722,1.2732,1.2749,1.2754,1.2771,1.2749,1.2767,1.2779,1.2763,1.2787,1.2789,1.2796,1.2825,1.2838,1.2828,1.2884,1.2866,1.2869,1.287,1.2886,1.2892,1.2898,1.2824,1.2824,1.2824,0,0,1.276,1.2764,1.2787,1.2792,1.2801,1.2799,1.2804,1.281,1.2811,1.2834,1.2822,1.2836,1.2861,1.2867,1.2873,1.2917,1.2907,1.2921,1.2946,1.2963,1.2968,1.2973,1.2988,1.2994,1.2925,1.2925,1.2925,0,1.2781,1.2806,1.2799,1.2819,1.2826,1.2812,1.2835,1.284,1.2852,1.2858,1.2847,1.2877,1.2881,1.2911,1.2922,1.2927,1.2933,1.2921,1.2968,1.2973,1.2977,1.2992,1.2998,1.2927,1.2926,1.2926,1.2926,0,1.2832,1.2849,1.2866,1.2878,1.2888,1.2909,1.2905,1.2916,1.291,1.2909,1.2934,1.2938,1.2952,1.2958,1.2953,1.2987,1.2981,1.2969,1.2949,1.2985,1.2999,1.3004,1.2929,1.2928,1.2928,1.2928,0,0,1.289,1.2898,1.2904,1.291,1.2918,1.2931,1.2951,1.2964,1.2973,1.2982,1.2998,1.3019,1.3008,1.3015,1.301,1.3025,1.3059,1.3011,1.3011,1.302,1.3098,1.3107,1.3113,1.3053,1.3054,1.3055,1.3097,0,1.2932,1.2967,1.2961,1.2995,1.3011,1.2997,1.3015,1.3021,1.3021,1.3034,1.3034,1.3049,1.3034,1.3038,1.3052,1.3052,1.3075,1.3049,1.3068,1.3069,1.3067,1.3121,1.313,1.317,1.3102,1.3103,1.3104,0,1.2985,1.2996,1.3031,1.3037,1.3043,1.3059,1.3071,1.3084,1.3091,1.309,1.3098,1.309,1.311,1.309,1.3117,1.3099,1.3106,1.3108,1.3109,1.3111,1.3089,1.3124,1.3182,1.3188,1.3112,1.3112,1.3111,0,1.3024,1.3047,1.3071,1.3076,1.3083,1.3095,1.3098,1.3104,1.3112,1.3123,1.3128,1.314,1.3147,1.3157,1.3153,1.3138,1.318,1.316,1.318,1.318,1.319,1.3189,1.3251,1.3194,1.3194,1.3194,1.3194,0,1.3071,1.3093,1.3089,1.3104,1.3128,1.3121,1.3146,1.3147,1.3153,1.3168,1.3157,1.3171,1.3164,1.3178,1.3174,1.3197,1.32,1.32,1.3199,1.3201,1.3201,1.3206,1.3203,1.3196,1.3195,1.3195,1.3195,0,1.3119,1.3116,1.3142,1.3146,1.3148,1.3166,1.3169,1.3183,1.3182,1.3201,1.3205,1.3204,1.3219,1.3216,1.3233,1.323,1.3259,1.3254,1.3257,1.3256,1.3276,1.3274,1.3343,1.3351,1.329,1.329,1.3291,0,1.3149,1.3166,1.3172,1.3181,1.3186,1.3201,1.3209,1.3203,1.3213,1.3222,1.3235,1.3249,1.326,1.3285,1.3286,1.3299,1.3294,1.3317,1.3296,1.3298,1.3295,1.3294,1.3295,1.3322,1.3322,1.3323,1.3323,0,1.3203,1.3201,1.3214,1.3227,1.3238,1.3247,1.3256,1.3264,1.3259,1.327,1.3285,1.3294,1.3311,1.3326,1.3337,1.334,1.3331,1.333,1.3335,1.3338,1.3338,1.3338,1.3268,1.3328,1.3328,1.3328,1.3327,1.3327,1.3243,1.3257,1.3264,1.3279,1.3285,1.3293,1.3306,1.3307,1.332,1.3334,1.3329,1.3347,1.3354,1.3368,1.3373,1.3387,1.3378,1.3386,1.3388,1.339,1.3392,1.3336,1.3389,1.3389,1.3388,1.3388,1.3388,0,1.3297,1.3301,1.3314,1.3327,1.3338,1.3328,1.3337,1.3347,1.3363,1.337,1.3382,1.34,1.3413,1.3415,1.3428,1.3439,1.3435,1.3442,1.3441,1.3442,1.3399,1.3393,1.3445,1.3445,1.3445,1.3445,1.3445,1.3445,1.3326,1.335,1.3349,1.3375,1.3378,1.3396,1.3402,1.3409,1.3415,1.3435,1.3447,1.3448,1.3453,1.3466,1.3478,1.3478,1.3483,1.3493,1.3491,1.3451,1.3445,1.344,1.3434,1.3494,1.3494,1.3533,1.3533,1.3533]}]]